Weather History for KHIF - January, 2014

Change the Weather History Date:

Wednesday, January 1, 2014

  Actual Average Record
Temperature  
Mean Temperature 30 °F -  
Max Temperature 37 °F 34 °F 53 °F (1997)
Min Temperature 24 °F 22 °F 5 °F (2008)
Degree Days  
Heating Degree Days 34    
Moisture  
Dew Point 22 °F    
Average Humidity 74    
Maximum Humidity 86    
Minimum Humidity 58    
Precipitation  
Precipitation 0.00 in - - ()
Sea Level Pressure  
Sea Level Pressure 30.34 in    
Wind  
Wind Speed 4 mph (SE)    
Max Wind Speed 13 mph    
Max Gust Speed -    
Visibility 8 miles    
Events      
Averages and records for this station are not official NWS values.
T = Trace of Precipitation, MM = Missing Value Source: NWS Daily Summary

Daily Weather History Graph

Daily Weather History Graph

Search for Another Location

Airport or City:

Trip Planner

Search our weather history database for the weather conditions in past years. The results will help you decide how hot, cold, wet, or windy it might be!

Date:

Astronomy

Jan. 01, 2014 Rise Set
Actual Time 7:53 AM MST 5:10 PM MST
Civil Twilight 7:22 AM MST 5:41 PM MST
Nautical Twilight 6:47 AM MST 6:15 PM MST
Astronomical Twilight 6:14 AM MST 6:49 PM MST
Moon 7:46 AM MST (1/1) 6:00 PM MST (1/1)
Length of Visible Light 10h 18m
Length of Day
9h 16m
New Moon, 0% of the Moon is Illuminated
Jan 1
New Moon
Jan 7
First Quarter
Jan 15
Full
Jan 23
Last Quarter
Jan 30
New

Hourly Weather History & Observations

Time (MST) Temp. Windchill Dew Point Humidity Pressure Visibility Wind Dir Wind Speed Gust Speed Precip Events Conditions
12:08 AM 28.4 °F 22.2 °F 21.2 °F 74% 30.21 in 10.0 mi SW 5.8 mph - N/A   Overcast
12:38 AM 28.4 °F - 23.0 °F 80% 30.22 in 9.0 mi SSE 2.3 mph - N/A   Overcast
12:58 AM 29.3 °F - 23.7 °F 80% 30.27 in 7.0 mi SSW 2.3 mph - N/A   Overcast
1:08 AM 30.2 °F - 23.0 °F 75% 30.22 in 10.0 mi South 2.3 mph - N/A   Overcast
1:28 AM 30.2 °F - 23.0 °F 75% 30.23 in 9.0 mi South 2.3 mph - N/A   Overcast
1:38 AM 30.2 °F 25.4 °F 23.0 °F 75% 30.23 in 10.0 mi SSE 4.6 mph - N/A   Overcast
1:43 AM 30.2 °F 25.4 °F 23.0 °F 75% 30.23 in 9.0 mi South 4.6 mph - N/A   Overcast
1:53 AM 30.2 °F 24.3 °F 23.0 °F 75% 30.23 in 10.0 mi SSW 5.8 mph - N/A   Overcast
1:58 AM 30.2 °F 24.3 °F 22.8 °F 74% 30.27 in 10.0 mi SW 5.8 mph - N/A   Overcast
2:58 AM 30.0 °F 24.1 °F 21.6 °F 71% 30.30 in 10.0 mi North 5.8 mph - N/A   Overcast
3:03 AM 30.2 °F 25.4 °F 23.0 °F 75% 30.26 in 8.0 mi North 4.6 mph - N/A   Overcast
3:58 AM 29.3 °F - 23.0 °F 77% 30.31 in 7.0 mi Calm Calm - N/A   Overcast
4:33 AM 28.4 °F 20.4 °F 21.2 °F 74% 30.27 in 10.0 mi South 8.1 mph - N/A   Overcast
4:38 AM 28.4 °F 21.2 °F 21.2 °F 74% 30.27 in 10.0 mi South 6.9 mph - N/A   Mostly Cloudy
4:48 AM 26.6 °F 18.2 °F 21.2 °F 80% 30.27 in 9.0 mi South 8.1 mph - N/A   Mostly Cloudy
4:53 AM 26.6 °F 17.5 °F 21.2 °F 80% 30.27 in 8.0 mi South 9.2 mph - N/A   Scattered Clouds
4:58 AM 26.6 °F 19.1 °F 20.3 °F 77% 30.33 in 8.0 mi South 6.9 mph - N/A   Partly Cloudy
5:08 AM 26.6 °F 19.1 °F 19.4 °F 74% 30.29 in 10.0 mi SSE 6.9 mph - N/A   Scattered Clouds
5:13 AM 26.6 °F 19.1 °F 19.4 °F 74% 30.29 in 9.0 mi SSE 6.9 mph - N/A   Scattered Clouds
5:33 AM 24.8 °F 20.5 °F 19.4 °F 80% 30.29 in 5.0 mi SE 3.5 mph - N/A   Haze
5:38 AM 24.8 °F 20.5 °F 21.2 °F 86% 30.30 in 6.0 mi East 3.5 mph - N/A   Haze
5:48 AM 28.4 °F - 19.4 °F 69% 30.30 in 10.0 mi East 2.3 mph - N/A   Mostly Cloudy
5:58 AM 28.9 °F 25.2 °F 19.8 °F 69% 30.35 in 10.0 mi East 3.5 mph - N/A   Mostly Cloudy
6:03 AM 28.4 °F - 21.2 °F 74% 30.30 in 10.0 mi East 2.3 mph - N/A   Scattered Clouds
6:08 AM 28.4 °F 24.6 °F 21.2 °F 74% 30.30 in 8.0 mi East 3.5 mph - N/A   Scattered Clouds
6:28 AM 30.2 °F 26.7 °F 21.2 °F 69% 30.31 in 10.0 mi East 3.5 mph - N/A   Mostly Cloudy
6:33 AM 28.4 °F 24.6 °F 21.2 °F 74% 30.31 in 10.0 mi East 3.5 mph - N/A   Scattered Clouds
6:58 AM 29.1 °F - 20.1 °F 69% 30.36 in 10.0 mi South 2.3 mph - N/A   Clear
7:33 AM 26.6 °F - 21.2 °F 80% 30.32 in 8.0 mi WNW 2.3 mph - N/A   Clear
7:38 AM 26.6 °F - 21.2 °F 80% 30.32 in 6.0 mi NNW 2.3 mph - N/A   Haze
7:58 AM 26.4 °F 22.4 °F 21.2 °F 81% 30.40 in 5.0 mi North 3.5 mph - N/A   Haze
8:58 AM 28.8 °F - 21.2 °F 73% 30.43 in 8.0 mi North 2.3 mph - N/A   Clear
9:58 AM 31.3 °F 27.9 °F 20.8 °F 65% 30.40 in 10.0 mi NNE 3.5 mph - N/A   Clear
10:58 AM 31.5 °F - 21.9 °F 68% 30.43 in 8.0 mi SSE 2.3 mph - N/A   Clear
11:58 AM 34.3 °F 31.4 °F 21.4 °F 59% 30.41 in 10.0 mi West 3.5 mph - N/A   Clear
12:58 PM 35.8 °F - 22.6 °F 59% 30.40 in 10.0 mi WNW 2.3 mph - N/A   Clear
1:56 PM 37.4 °F - 24.8 °F 60% 30.38 in 8.0 mi West 2.3 mph - N/A   Clear
2:58 PM 36.9 °F - 23.4 °F 58% 30.37 in 10.0 mi West 2.3 mph - N/A   Clear
3:58 PM 34.5 °F 28.6 °F 25.7 °F 70% 30.40 in 4.0 mi SSW 6.9 mph - N/A   Haze
4:33 PM 32.0 °F 27.5 °F 24.8 °F 75% 30.36 in 5.0 mi South 4.6 mph - N/A   Haze
4:58 PM 31.1 °F - 23.2 °F 72% 30.42 in 6.0 mi South 1.2 mph - N/A   Haze
5:43 PM 30.2 °F - 23.0 °F 75% 30.37 in 8.0 mi Calm Calm - N/A   Clear
5:58 PM 29.3 °F - 22.3 °F 75% 30.44 in 7.0 mi NNE 2.3 mph - N/A   Clear
6:43 PM 30.2 °F - 24.8 °F 80% 30.37 in 5.0 mi NE 1.2 mph - N/A   Haze
6:58 PM 29.3 °F 25.6 °F 23.7 °F 80% 30.44 in 5.0 mi East 3.5 mph - N/A   Haze
7:23 PM 28.4 °F 24.6 °F 23.0 °F 80% 30.37 in 4.0 mi SE 3.5 mph - N/A   Haze
7:58 PM 26.2 °F - 20.7 °F 79% 30.46 in 4.0 mi ESE 2.3 mph - N/A   Haze
8:23 PM 28.4 °F 24.6 °F 23.0 °F 80% 30.38 in 5.0 mi SSE 3.5 mph - N/A   Haze
8:53 PM 28.4 °F - 23.0 °F 80% 30.38 in 10.0 mi ESE 2.3 mph - N/A   Clear
8:58 PM 28.9 °F 25.2 °F 22.1 °F 76% 30.45 in 9.0 mi ESE 3.5 mph - N/A   Clear
9:13 PM 26.6 °F 18.2 °F 19.4 °F 74% 30.38 in 10.0 mi ESE 8.1 mph - N/A   Clear
9:58 PM 27.1 °F 18.9 °F 19.4 °F 73% 30.43 in 10.0 mi ESE 8.1 mph - N/A   Clear
10:58 PM 28.9 °F 19.8 °F 20.3 °F 70% 30.44 in 10.0 mi East 10.4 mph - N/A   Clear
11:58 PM 26.8 °F 15.9 °F 19.8 °F 75% 30.43 in 10.0 mi ESE 12.7 mph - N/A   Clear